Change the Weather History Date:

Friday, May 17, 2013

  Actual Average Record
Temperature  
Mean Temperature 74 °F -  
Max Temperature 90 °F 84 °F 96 °F (2003)
Min Temperature 57 °F 56 °F 44 °F (2008)
Cooling Degree Days 8    
Growing Degree Days 24 (Base 50)    
Moisture  
Dew Point 20 °F    
Average Humidity 12    
Maximum Humidity 20    
Minimum Humidity 9    
Precipitation  
Precipitation 0.00 in - - ()
Sea Level Pressure  
Sea Level Pressure 29.98 in    
Wind  
Wind Speed 9 mph (West)    
Max Wind Speed 17 mph    
Max Gust Speed 28 mph    
Visibility 10 miles    
Events      
Averages and records for this station are not official NWS values.
T = Trace of Precipitation, MM = Missing Value Source: NWS Daily Summary

Daily Weather History Graph

Daily Weather History Graph

Search for Another Location

Airport or City:

Trip Planner

Search our weather history database for the weather conditions in past years. The results will help you decide how hot, cold, wet, or windy it might be!

Date:

Astronomy

May. 17, 2013 Rise Set
Actual Time 6:08 AM MDT 8:00 PM MDT
Civil Twilight 5:41 AM MDT 8:27 PM MDT
Nautical Twilight 5:08 AM MDT 9:00 PM MDT
Astronomical Twilight 4:33 AM MDT 9:35 PM MDT
Moon 12:33 PM MDT (5/17) 1:03 AM MDT (5/17)
Length of Visible Light 14h 46m
Length of Day
13h 52m
Waxing Crescent, 46% of the Moon is Illuminated
May 17
Waxing Crescent
May 17
First Quarter
May 24
Full
May 31
Last Quarter
Jun 8
New

Hourly Weather History & Observations

Time (MDT) Temp. Dew Point Humidity Pressure Visibility Wind Dir Wind Speed Gust Speed Precip Events Conditions
12:15 AM 65.7 °F 15.8 °F 15% 29.95 in 10.0 mi West 9.2 mph - N/A   Clear
12:35 AM 67.6 °F 16.5 °F 14% 29.96 in 10.0 mi West 8.1 mph - N/A   Clear
12:55 AM 68.7 °F 17.2 °F 14% 29.96 in 10.0 mi WNW 8.1 mph - N/A   Clear
1:15 AM 65.1 °F 16.2 °F 15% 29.96 in 10.0 mi West 9.2 mph - N/A   Clear
1:35 AM 64.4 °F 15.6 °F 15% 29.96 in 10.0 mi West 9.2 mph - N/A   Clear
1:55 AM 62.4 °F 14.9 °F 16% 29.96 in 10.0 mi WNW 8.1 mph - N/A   Clear
2:15 AM 61.7 °F 14.7 °F 16% 29.96 in 10.0 mi West 8.1 mph - N/A   Clear
2:35 AM 60.1 °F 14.4 °F 17% 29.96 in 10.0 mi West 8.1 mph - N/A   Clear
2:55 AM 60.4 °F 15.4 °F 17% 29.97 in 10.0 mi West 10.4 mph - N/A   Clear
3:15 AM 62.2 °F 15.3 °F 16% 29.97 in 10.0 mi West 12.7 mph - N/A   Clear
3:35 AM 61.3 °F 15.3 °F 17% 29.98 in 10.0 mi West 10.4 mph - N/A   Clear
3:55 AM 63.5 °F 15.8 °F 16% 29.98 in 10.0 mi West 12.7 mph - N/A   Clear
4:15 AM 63.1 °F 16.0 °F 16% 29.98 in 10.0 mi West 11.5 mph - N/A   Clear
4:35 AM 63.5 °F 16.5 °F 16% 29.99 in 10.0 mi West 10.4 mph - N/A   Clear
4:55 AM 62.8 °F 16.7 °F 17% 29.99 in 10.0 mi West 9.2 mph - N/A   Clear
5:15 AM 61.5 °F 17.1 °F 18% 29.98 in 10.0 mi West 10.4 mph - N/A   Clear
5:35 AM 61.7 °F 17.2 °F 18% 29.99 in 10.0 mi West 8.1 mph - N/A   Clear
6:15 AM 57.7 °F 16.9 °F 20% 30.00 in 10.0 mi NNW 8.1 mph - N/A   Clear
6:35 AM 60.6 °F 16.7 °F 18% 30.01 in 10.0 mi NNE 4.6 mph - N/A   Clear
6:55 AM 61.0 °F 17.6 °F 19% 30.01 in 10.0 mi NNW 3.5 mph - N/A   Clear
7:15 AM 64.8 °F 19.0 °F 17% 30.02 in 10.0 mi Calm Calm - N/A   Clear
7:35 AM 65.8 °F 18.5 °F 16% 30.03 in 10.0 mi NW 3.5 mph - N/A   Clear
7:55 AM 68.9 °F 19.4 °F 15% 30.03 in 10.0 mi WNW 5.8 mph - N/A   Clear
8:15 AM 72.3 °F 20.3 °F 14% 30.03 in 10.0 mi WNW 3.5 mph - N/A   Clear
8:35 AM 76.5 °F 20.8 °F 13% 30.03 in 10.0 mi NNW 3.5 mph - N/A   Clear
8:55 AM 78.8 °F 21.2 °F 12% 30.03 in 10.0 mi Calm Calm - N/A   Clear
9:15 AM 79.0 °F 21.2 °F 12% 30.04 in 10.0 mi Calm Calm - N/A   Clear
9:35 AM 79.9 °F 21.2 °F 11% 30.04 in 10.0 mi West 4.6 mph - N/A   Clear
9:55 AM 81.3 °F 21.4 °F 11% 30.04 in 10.0 mi SW 3.5 mph - N/A   Clear
10:15 AM 82.2 °F 21.6 °F 11% 30.04 in 10.0 mi SSW 4.6 mph - N/A   Clear
10:35 AM 82.8 °F 21.2 °F 10% 30.03 in 10.0 mi West 8.1 mph 16.1 mph N/A   Clear
10:55 AM 82.8 °F 21.2 °F 10% 30.03 in 10.0 mi WSW 3.5 mph - N/A   Clear
11:15 AM 83.8 °F 21.0 °F 10% 30.03 in 10.0 mi North 5.8 mph - N/A   Clear
11:35 AM 85.3 °F 20.3 °F 9% 30.03 in 10.0 mi West 9.2 mph 17.3 mph N/A   Clear
11:55 AM 85.1 °F 20.1 °F 9% 30.03 in 10.0 mi WSW 15.0 mph 19.6 mph N/A   Clear
12:15 PM 87.3 °F 20.7 °F 9% 30.03 in 10.0 mi WSW 12.7 mph 17.3 mph N/A   Clear
12:35 PM 86.5 °F 20.3 °F 9% 30.02 in 10.0 mi West 4.6 mph - N/A   Clear
1:15 PM 87.3 °F 22.1 °F 9% 30.00 in 10.0 mi SW 5.8 mph 16.1 mph N/A   Clear
1:35 PM 88.2 °F 22.6 °F 9% 30.00 in 10.0 mi WSW 8.1 mph 23.0 mph N/A   Clear
1:55 PM 87.1 °F 22.8 °F 10% 30.00 in 10.0 mi West 6.9 mph 17.3 mph N/A   Clear
2:15 PM 88.7 °F 23.5 °F 9% 29.99 in 10.0 mi WSW 11.5 mph 20.7 mph N/A   Clear
2:35 PM 87.6 °F 23.5 °F 10% 29.98 in 10.0 mi SSW 5.8 mph 19.6 mph N/A   Clear
2:55 PM 89.8 °F 24.1 °F 9% 29.97 in 10.0 mi South 9.2 mph - N/A   Clear
3:15 PM 88.3 °F 23.9 °F 10% 29.96 in 10.0 mi SSW 3.5 mph 16.1 mph N/A   Clear
3:35 PM 90.0 °F 25.0 °F 10% 29.96 in 10.0 mi WSW 8.1 mph 18.4 mph N/A   Clear
3:55 PM 89.8 °F 25.2 °F 10% 29.95 in 10.0 mi SSW 9.2 mph 25.3 mph N/A   Clear
4:15 PM 90.1 °F 25.5 °F 10% 29.94 in 10.0 mi SW 9.2 mph 23.0 mph N/A   Clear
4:35 PM 89.1 °F 25.5 °F 10% 29.93 in 10.0 mi West 16.1 mph 23.0 mph N/A   Clear
4:55 PM 90.5 °F 25.5 °F 10% 29.93 in 10.0 mi SW 10.4 mph - N/A   Clear
5:15 PM 90.1 °F 25.0 °F 9% 29.92 in 10.0 mi WSW 16.1 mph 27.6 mph N/A   Clear
5:35 PM 88.3 °F 24.8 °F 10% 29.92 in 10.0 mi SW 9.2 mph 21.9 mph N/A   Clear
5:55 PM 89.1 °F 25.5 °F 10% 29.92 in 10.0 mi WSW 10.4 mph 20.7 mph N/A   Clear
6:15 PM 88.7 °F 24.8 °F 10% 29.92 in 10.0 mi SW 11.5 mph 20.7 mph N/A   Clear
6:35 PM 87.8 °F 25.7 °F 11% 29.92 in 10.0 mi WSW 9.2 mph - N/A   Clear
6:55 PM 87.3 °F 26.4 °F 11% 29.92 in 10.0 mi SW 15.0 mph 20.7 mph N/A   Clear
7:15 PM 85.8 °F 26.8 °F 12% 29.92 in 10.0 mi WSW 11.5 mph - N/A   Clear
7:35 PM 85.3 °F 27.0 °F 12% 29.92 in 10.0 mi SW 11.5 mph 17.3 mph N/A   Clear
7:55 PM 84.0 °F 26.4 °F 12% 29.93 in 10.0 mi WSW 9.2 mph - N/A   Clear
8:15 PM 82.8 °F 25.5 °F 12% 29.93 in 10.0 mi WSW 9.2 mph - N/A   Clear
8:35 PM 81.0 °F 24.8 °F 13% 29.94 in 10.0 mi WSW 6.9 mph - N/A   Clear
8:55 PM 79.7 °F 24.8 °F 13% 29.94 in 10.0 mi WSW 10.4 mph - N/A   Clear
9:15 PM 79.7 °F 24.6 °F 13% 29.95 in 10.0 mi West 13.8 mph - N/A   Clear
9:35 PM 77.5 °F 23.0 °F 13% 29.95 in 10.0 mi West 11.5 mph - N/A   Clear
9:55 PM 78.4 °F 17.1 °F 10% 29.96 in 10.0 mi West 17.3 mph 20.7 mph N/A   Clear
10:15 PM 76.6 °F 14.7 °F 10% 29.96 in 10.0 mi West 15.0 mph - N/A   Clear
10:35 PM 75.7 °F 13.1 °F 9% 29.97 in 10.0 mi West 15.0 mph - N/A   Clear
10:55 PM 75.0 °F 12.7 °F 9% 29.97 in 10.0 mi West 13.8 mph - N/A   Clear
11:15 PM 73.6 °F 12.4 °F 10% 29.98 in 10.0 mi West 12.7 mph - N/A   Clear
11:35 PM 72.7 °F 12.2 °F 10% 29.97 in 10.0 mi West 13.8 mph - N/A   Clear
11:55 PM 72.5 °F 12.7 °F 10% 29.97 in 10.0 mi West 16.1 mph - N/A   Clear